Weather History for KFCM - November, 2011

Change the Weather History Date:

Sunday, November 13, 2011

  Actual Average Record
Temperature  
Mean Temperature 42 °F -  
Max Temperature 48 °F 42 °F 71 °F (1999)
Min Temperature 36 °F 28 °F 17 °F (2012)
Degree Days  
Heating Degree Days 23    
Moisture  
Dew Point 31 °F    
Average Humidity 61    
Maximum Humidity 79    
Minimum Humidity 50    
Precipitation  
Precipitation 0.00 in - - ()
Sea Level Pressure  
Sea Level Pressure 29.31 in    
Wind  
Wind Speed 9 mph (WSW)    
Max Wind Speed 14 mph    
Max Gust Speed 16 mph    
Visibility 10 miles    
Events      
Averages and records for this station are not official NWS values.
T = Trace of Precipitation, MM = Missing Value Source: NWS Daily Summary

Daily Weather History Graph

Daily Weather History Graph

Search for Another Location

Airport or City:

Trip Planner

Search our weather history database for the weather conditions in past years. The results will help you decide how hot, cold, wet, or windy it might be!

Date:

Astronomy

Nov. 13, 2011 Rise Set
Actual Time 7:08 AM CST 4:47 PM CST
Civil Twilight 6:36 AM CST 5:19 PM CST
Nautical Twilight 6:01 AM CST 5:54 PM CST
Astronomical Twilight 5:26 AM CST 6:28 PM CST
Moon 6:52 PM CST (11/13) 9:46 AM CST (11/13)
Length of Visible Light 10h 42m
Length of Day
9h 39m
Waning Gibbous, 92% of the Moon is Illuminated
Nov 13
Waning Gibbous
Nov 18
Last Quarter
Nov 25
New
Dec 2
First Quarter
Dec 10
Full

Hourly Weather History & Observations

Time (CST) Temp. Windchill Dew Point Humidity Pressure Visibility Wind Dir Wind Speed Gust Speed Precip Events Conditions
12:53 AM 45.0 °F 38.9 °F 34.0 °F 65% 29.18 in 10.0 mi SSW 12.7 mph - N/A   Clear
1:53 AM 45.0 °F 40.1 °F 34.0 °F 65% 29.18 in 10.0 mi SSW 9.2 mph - N/A   Clear
2:53 AM 46.0 °F 41.4 °F 34.0 °F 63% 29.18 in 10.0 mi WSW 9.2 mph - N/A   Scattered Clouds
3:53 AM 46.0 °F 41.9 °F 34.0 °F 63% 29.19 in 10.0 mi SW 8.1 mph - N/A   Clear
4:53 AM 46.0 °F 42.5 °F 32.0 °F 58% 29.19 in 10.0 mi West 6.9 mph - N/A   Partly Cloudy
5:53 AM 46.0 °F 42.5 °F 28.9 °F 51% 29.19 in 10.0 mi WNW 6.9 mph - N/A   Mostly Cloudy
6:53 AM 44.1 °F 41.5 °F 28.9 °F 55% 29.22 in 10.0 mi SW 4.6 mph - N/A   Overcast
7:53 AM 44.1 °F 41.5 °F 28.9 °F 55% 29.22 in 10.0 mi SW 4.6 mph - N/A   Overcast
8:53 AM 44.1 °F 42.5 °F 28.0 °F 53% 29.24 in 10.0 mi West 3.5 mph - N/A   Overcast
9:53 AM 45.0 °F 40.6 °F 28.0 °F 52% 29.25 in 10.0 mi NW 8.1 mph - N/A   Overcast
10:53 AM 46.0 °F 39.9 °F 28.9 °F 51% 29.28 in 10.0 mi NW 13.8 mph - N/A   Overcast
11:53 AM 46.9 °F - 30.0 °F 52% 29.27 in 10.0 mi WNW 5.8 mph - N/A   Overcast
12:53 PM 48.0 °F - 30.0 °F 50% 29.30 in 10.0 mi West 11.5 mph - N/A   Overcast
1:53 PM 46.9 °F - 30.0 °F 52% 29.29 in 10.0 mi West 11.5 mph - N/A   Overcast
2:53 PM 45.0 °F 39.7 °F 30.9 °F 58% 29.32 in 10.0 mi West 10.4 mph 16.1 mph N/A   Overcast
3:53 PM 45.0 °F 40.1 °F 30.9 °F 58% 29.36 in 10.0 mi West 9.2 mph - N/A   Overcast
4:53 PM 42.1 °F 38.4 °F 30.9 °F 65% 29.40 in 9.0 mi West 5.8 mph - N/A   Overcast
5:53 PM 41.0 °F 38.0 °F 30.9 °F 67% 29.41 in 10.0 mi WSW 4.6 mph - N/A   Overcast
6:53 PM 37.0 °F 32.4 °F 30.0 °F 76% 29.43 in 10.0 mi South 5.8 mph - N/A   Partly Cloudy
7:53 PM 37.9 °F 35.5 °F 30.9 °F 76% 29.46 in 10.0 mi SSW 3.5 mph - N/A   Clear
8:53 PM 36.0 °F 29.6 °F 30.0 °F 79% 29.46 in 10.0 mi South 8.1 mph - N/A   Clear
9:53 PM 37.9 °F 32.7 °F 30.0 °F 73% 29.47 in 10.0 mi SW 6.9 mph - N/A   Overcast
10:53 PM 41.0 °F 35.2 °F 30.9 °F 67% 29.48 in 10.0 mi SW 9.2 mph - N/A   Overcast
11:53 PM 41.0 °F 35.2 °F 30.0 °F 65% 29.48 in 10.0 mi SSW 9.2 mph - N/A   Scattered Clouds